TimeCDT,TemperatureF,Dew PointF,Humidity,Sea Level PressureIn,VisibilityMPH,Wind Direction,Wind SpeedMPH,Gust SpeedMPH,PrecipitationIn,Events,Conditions,WindDirDegrees,DateUTC
12:15 AM,28.4,21.2,74,30.07,10.0,WNW,9.2,-,N/A,,Clear,290,2013-04-19 05:15:00
12:35 AM,28.4,21.2,74,30.07,10.0,WNW,12.7,-,N/A,,Clear,300,2013-04-19 05:35:00
12:55 AM,28.4,19.4,69,30.07,10.0,WNW,12.7,-,N/A,,Clear,300,2013-04-19 05:55:00
1:15 AM,28.4,19.4,69,30.07,10.0,WNW,12.7,-,N/A,,Clear,300,2013-04-19 06:15:00
1:35 AM,28.4,19.4,69,30.07,10.0,WNW,12.7,18.4,N/A,,Clear,300,2013-04-19 06:35:00
1:55 AM,28.4,19.4,69,30.07,10.0,WNW,11.5,-,N/A,,Clear,290,2013-04-19 06:55:00
2:15 AM,26.6,19.4,74,30.07,10.0,WNW,12.7,-,N/A,,Clear,290,2013-04-19 07:15:00
2:35 AM,26.6,19.4,74,30.06,10.0,WNW,11.5,-,N/A,,Clear,290,2013-04-19 07:35:00
2:55 AM,26.6,19.4,74,30.06,10.0,WNW,12.7,-,N/A,,Clear,290,2013-04-19 07:55:00
3:15 AM,26.6,19.4,74,30.06,10.0,West,10.4,-,N/A,,Clear,280,2013-04-19 08:15:00
3:35 AM,26.6,19.4,74,30.06,10.0,WNW,12.7,-,N/A,,Clear,290,2013-04-19 08:35:00
3:55 AM,26.6,19.4,74,30.06,10.0,WNW,12.7,-,N/A,,Clear,290,2013-04-19 08:55:00
4:15 AM,26.6,19.4,74,30.05,10.0,WNW,11.5,-,N/A,,Clear,290,2013-04-19 09:15:00
4:35 AM,26.6,19.4,74,30.05,10.0,WNW,11.5,-,N/A,,Clear,290,2013-04-19 09:35:00
4:55 AM,26.6,19.4,74,30.05,10.0,WNW,11.5,-,N/A,,Clear,290,2013-04-19 09:55:00
5:15 AM,26.6,19.4,74,30.05,10.0,WNW,11.5,-,N/A,,Clear,290,2013-04-19 10:15:00
5:55 AM,26.6,19.4,74,30.06,10.0,WNW,10.4,-,N/A,,Clear,290,2013-04-19 10:55:00
6:15 AM,26.6,19.4,74,30.06,10.0,West,9.2,-,N/A,,Clear,270,2013-04-19 11:15:00
6:35 AM,24.8,19.4,80,30.06,10.0,West,9.2,-,N/A,,Clear,270,2013-04-19 11:35:00
6:55 AM,26.6,19.4,74,30.06,10.0,West,11.5,-,N/A,,Clear,280,2013-04-19 11:55:00
7:15 AM,26.6,19.4,74,30.06,10.0,West,9.2,-,N/A,,Clear,280,2013-04-19 12:15:00
7:35 AM,26.6,19.4,74,30.06,10.0,West,9.2,-,N/A,,Clear,270,2013-04-19 12:35:00
7:55 AM,28.4,19.4,69,30.06,10.0,West,9.2,-,N/A,,Clear,280,2013-04-19 12:55:00
8:15 AM,30.2,21.2,69,30.06,10.0,West,11.5,-,N/A,,Clear,270,2013-04-19 13:15:00
8:35 AM,30.2,21.2,69,30.06,10.0,West,10.4,-,N/A,,Clear,270,2013-04-19 13:35:00
8:55 AM,33.8,21.2,60,30.06,10.0,West,12.7,-,N/A,,Clear,280,2013-04-19 13:55:00
9:15 AM,35.6,21.2,56,30.05,10.0,West,13.8,-,N/A,,Clear,260,2013-04-19 14:15:00
9:55 AM,39.2,24.8,56,30.04,10.0,West,15.0,-,N/A,,Clear,280,2013-04-19 14:55:00
10:15 AM,42.8,26.6,53,30.04,10.0,West,12.7,-,N/A,,Clear,260,2013-04-19 15:15:00
10:35 AM,42.8,26.6,53,30.03,10.0,West,13.8,-,N/A,,Clear,260,2013-04-19 15:35:00
10:55 AM,44.6,28.4,53,30.03,10.0,West,11.5,-,N/A,,Clear,270,2013-04-19 15:55:00
11:15 AM,48.2,28.4,46,30.02,10.0,WNW,13.8,23.0,N/A,,Clear,290,2013-04-19 16:15:00
11:35 AM,51.8,28.4,41,30.01,10.0,West,15.0,19.6,N/A,,Clear,270,2013-04-19 16:35:00
11:55 AM,53.6,28.4,38,30.02,10.0,NW,18.4,25.3,N/A,,Clear,320,2013-04-19 16:55:00
12:15 PM,53.6,30.2,41,30.01,10.0,NW,18.4,25.3,N/A,,Clear,310,2013-04-19 17:15:00
12:35 PM,55.4,30.2,38,30.01,10.0,NNW,18.4,-,N/A,,Clear,330,2013-04-19 17:35:00
12:55 PM,55.4,30.2,38,30.01,10.0,NNW,20.7,26.5,N/A,,Clear,340,2013-04-19 17:55:00
1:15 PM,55.4,30.2,38,30.01,10.0,NNW,15.0,27.6,N/A,,Clear,330,2013-04-19 18:15:00
1:35 PM,57.2,30.2,36,30.01,10.0,NW,16.1,29.9,N/A,,Clear,310,2013-04-19 18:35:00
1:55 PM,57.2,30.2,36,30.01,10.0,NNW,17.3,25.3,N/A,,Partly Cloudy,330,2013-04-19 18:55:00
2:15 PM,57.2,30.2,36,30.01,10.0,NNW,21.9,26.5,N/A,,Clear,340,2013-04-19 19:15:00
2:35 PM,57.2,30.2,36,30.01,10.0,NNW,23.0,27.6,N/A,,Scattered Clouds,340,2013-04-19 19:35:00
2:55 PM,59.0,30.2,34,30.01,10.0,NW,16.1,24.2,N/A,,Mostly Cloudy,320,2013-04-19 19:55:00
3:15 PM,57.2,30.2,36,30.01,10.0,NNW,17.3,26.5,N/A,,Overcast,340,2013-04-19 20:15:00
3:35 PM,60.8,30.2,31,30.00,10.0,NNW,18.4,26.5,N/A,,Mostly Cloudy,340,2013-04-19 20:35:00
3:55 PM,59.0,30.2,34,30.00,10.0,NNW,15.0,21.9,N/A,,Mostly Cloudy,330,2013-04-19 20:55:00
4:15 PM,59.0,30.2,34,29.99,10.0,NNW,19.6,23.0,N/A,,Mostly Cloudy,330,2013-04-19 21:15:00
4:35 PM,59.0,30.2,34,29.99,10.0,NNW,17.3,24.2,N/A,,Mostly Cloudy,340,2013-04-19 21:35:00
4:55 PM,59.0,30.2,34,29.99,10.0,NW,12.7,-,N/A,,Overcast,310,2013-04-19 21:55:00
5:15 PM,60.8,30.2,31,29.99,10.0,NNW,15.0,-,N/A,,Mostly Cloudy,340,2013-04-19 22:15:00
5:35 PM,60.8,30.2,31,29.99,10.0,NNW,11.5,-,N/A,,Mostly Cloudy,340,2013-04-19 22:35:00
5:55 PM,57.2,30.2,36,29.99,10.0,NW,11.5,-,N/A,,Mostly Cloudy,320,2013-04-19 22:55:00
6:15 PM,59.0,30.2,34,29.99,10.0,WNW,16.1,21.9,N/A,,Overcast,300,2013-04-19 23:15:00
6:35 PM,59.0,30.2,34,29.99,10.0,North,11.5,-,N/A,,Mostly Cloudy,350,2013-04-19 23:35:00
6:55 PM,57.2,30.2,36,29.99,10.0,NNE,9.2,-,N/A,,Partly Cloudy,20,2013-04-19 23:55:00
7:15 PM,57.2,30.2,36,29.99,10.0,NNE,10.4,-,N/A,,Clear,30,2013-04-20 00:15:00
7:35 PM,55.4,30.2,38,29.99,10.0,NNE,6.9,-,N/A,,Clear,30,2013-04-20 00:35:00
7:55 PM,53.6,32.0,44,29.99,10.0,NE,8.1,-,N/A,,Clear,50,2013-04-20 00:55:00
8:15 PM,50.0,32.0,50,30.00,10.0,NE,6.9,-,N/A,,Clear,50,2013-04-20 01:15:00
8:35 PM,48.2,30.2,50,30.00,10.0,ENE,9.2,-,N/A,,Clear,60,2013-04-20 01:35:00
8:55 PM,44.6,30.2,57,30.01,10.0,ENE,9.2,-,N/A,,Clear,70,2013-04-20 01:55:00
9:15 PM,44.6,30.2,57,30.02,10.0,ENE,9.2,-,N/A,,Clear,70,2013-04-20 02:15:00
9:35 PM,42.8,30.2,61,30.02,10.0,East,9.2,-,N/A,,Clear,80,2013-04-20 02:35:00
9:55 PM,42.8,30.2,61,30.03,10.0,ENE,10.4,-,N/A,,Clear,70,2013-04-20 02:55:00
10:15 PM,42.8,30.2,61,30.04,10.0,East,9.2,-,N/A,,Clear,80,2013-04-20 03:15:00
10:35 PM,39.2,30.2,70,30.05,10.0,East,8.1,-,N/A,,Clear,100,2013-04-20 03:35:00
10:55 PM,39.2,30.2,70,30.04,10.0,ENE,8.1,-,N/A,,Clear,70,2013-04-20 03:55:00
11:15 PM,39.2,30.2,70,30.05,10.0,ENE,9.2,-,N/A,,Clear,60,2013-04-20 04:15:00
11:35 PM,37.4,28.4,70,30.06,10.0,East,9.2,-,N/A,,Clear,80,2013-04-20 04:35:00
11:55 PM,37.4,30.2,75,30.06,10.0,East,10.4,-,N/A,,Clear,80,2013-04-20 04:55:00